User: anonymous   Login
Location: Mascot Post Office (historical)
(40.2645°N, 99.5462°W)
Time: 22:33:53
(UTC+00:00)
Language:

Cosmos 921 Rocket - Orbit

View from above orbital plane
View from above orbital plane
View from above satellite
View from above satellite

Ground track
Ground track

The orbit data is extracted from the following two-line orbital elements,

1 10096U 77055B   20270.46259141  .00000033  00000-0  56648-5 0  9993
2 10096  75.8359  32.7553 0042424  35.7364 324.6652 14.88713939340394
Epoch (UTC): 26 September 2020 11:06:07
Eccentricity: 0.0042424
inclination: 75.8359°
perigee height: 572 km
apogee height: 631 km
right ascension of ascending node: 32.7553°
argument of perigee: 35.7364°
revolutions per day: 14.88713939
mean anomaly at epoch: 324.6652°
orbit number at epoch: 34039

The dashed part of the orbit path shows where the satellite is in the earth's shadow,  

DLR